User: anonymous   Login
Location: Unspecified
(0.0000°N, 0.0000°E)
Time: 00:52:44
(UTC+00:00)
Language:

ATS 3 - Orbit

View from above orbital plane
View from above orbital plane
View from above satellite
View from above satellite

Ground track
Ground track

The orbit data is extracted from the following two-line orbital elements,

1 03029U 67111A   21023.52160769 -.00000071  00000-0  00000-0 0  9993
2 03029   1.8398 285.5490 0017562 152.1959 127.8235  1.00271699194873
Epoch (UTC): 23 January 2021 12:31:06
Eccentricity: 0.0017562
inclination: 1.8398°
perigee height: 35712 km
apogee height: 35860 km
right ascension of ascending node: 285.5490°
argument of perigee: 152.1959°
revolutions per day: 1.00271699
mean anomaly at epoch: 127.8235°
orbit number at epoch: 19487

The dashed part of the orbit path shows where the satellite is in the earth's shadow,  

DLR